| time (UTC) | temp C | wind direction | speed KPH | gust KPH | rain 1hr cm | rain 24hr cm | rain mn cm | humidity % | barometer mb |
| 20260503203823 | 20 | 192 | 0.0 | 1.6 | 0.00 | 0.00 | 0.00 | 56 | 1017.4 |
| 20260503203321 | 20 | 196 | 3.2 | 3.2 | 0.00 | 0.00 | 0.00 | 54 | 1017.2 |
| 20260503202817 | 19 | 187 | 0.0 | 1.6 | 0.00 | 0.00 | 0.00 | 56 | 1017.2 |
| 20260503202316 | 19 | 197 | 3.2 | 3.2 | 0.00 | 0.00 | 0.00 | 57 | 1017.2 |
| 20260503201814 | 20 | 184 | 4.8 | 4.8 | 0.00 | 0.00 | 0.00 | 58 | 1017.2 |
| 20260503201310 | 20 | 192 | 3.2 | 3.2 | 0.00 | 0.00 | 0.00 | 56 | 1017.4 |
| 20260503200808 | 20 | 204 | 1.6 | 1.6 | 0.00 | 0.00 | 0.00 | 56 | 1017.4 |
| 20260503200303 | 19 | 193 | 3.2 | 3.2 | 0.00 | 0.00 | 0.00 | 57 | 1017.6 |
| 20260503195801 | 20 | 195 | 1.6 | 1.6 | 0.00 | 0.00 | 0.00 | 56 | 1017.4 |
| 20260503195257 | 20 | 195 | 1.6 | 1.6 | 0.00 | 0.00 | 0.00 | 56 | 1017.4 |
| 20260503194755 | 20 | 195 | 1.6 | 1.6 | 0.00 | 0.00 | 0.00 | 56 | 1017.5 |
| 20260503194250 | 20 | 189 | 0.0 | 1.6 | 0.00 | 0.00 | 0.00 | 56 | 1017.6 |
| 20260503193747 | 19 | 203 | 3.2 | 3.2 | 0.00 | 0.00 | 0.00 | 57 | 1017.7 |
| 20260503193243 | 20 | 206 | 3.2 | 3.2 | 0.00 | 0.00 | 0.00 | 55 | 1017.7 |
| 20260503192739 | 20 | 195 | 3.2 | 3.2 | 0.00 | 0.00 | 0.00 | 57 | 1018.2 |
| 20260503192234 | 20 | 188 | 1.6 | 1.6 | 0.00 | 0.00 | 0.00 | 55 | 1018.1 |
| 20260503191731 | 20 | 194 | 1.6 | 1.6 | 0.00 | 0.00 | 0.00 | 55 | 1018.2 |
| 20260503191228 | 20 | 198 | 1.6 | 3.2 | 0.00 | 0.00 | 0.00 | 57 | 1018.3 |
| 20260503190725 | 20 | 196 | 0.0 | 1.6 | 0.00 | 0.00 | 0.00 | 57 | 1018.2 |
| 20260503190222 | 20 | 190 | 1.6 | 3.2 | 0.00 | 0.00 | 0.00 | 57 | 1018.3 |
| 20260503185719 | 20 | 197 | 1.6 | 3.2 | 0.00 | 0.00 | 0.00 | 57 | 1018.6 |
| 20260503185214 | 19 | 196 | 1.6 | 1.6 | 0.00 | 0.00 | 0.00 | 58 | 1018.5 |
| 20260503184709 | 19 | 195 | 0.0 | 1.6 | 0.00 | 0.00 | 0.00 | 58 | 1018.5 |
| 20260503184206 | 19 | 208 | 3.2 | 4.8 | 0.00 | 0.00 | 0.00 | 57 | 1018.4 |
| 20260503183702 | 20 | 187 | 1.6 | 1.6 | 0.00 | 0.00 | 0.00 | 57 | 1018.5 |
| 20260503183200 | 19 | 197 | 0.0 | 0.0 | 0.00 | 0.00 | 0.00 | 57 | 1018.6 |
| 20260503182658 | 19 | 195 | 0.0 | 1.6 | 0.00 | 0.00 | 0.00 | 57 | 1018.8 |
| 20260503182156 | 19 | 203 | 1.6 | 1.6 | 0.00 | 0.00 | 0.00 | 57 | 1018.8 |
| 20260503181652 | 20 | 203 | 1.6 | 1.6 | 0.00 | 0.00 | 0.00 | 57 | 1018.8 |
| 20260503181149 | 19 | 198 | 0.0 | 0.0 | 0.00 | 0.00 | 0.00 | 58 | 1018.7 |
| 20260503180646 | 19 | 194 | 1.6 | 1.6 | 0.00 | 0.00 | 0.00 | 58 | 1018.8 |
| 20260503180144 | 19 | 195 | 1.6 | 1.6 | 0.00 | 0.00 | 0.00 | 58 | 1018.9 |
| 20260503175641 | 19 | 196 | 1.6 | 1.6 | 0.00 | 0.00 | 0.00 | 58 | 1019.0 |
| 20260503175138 | 20 | 201 | 1.6 | 3.2 | 0.00 | 0.00 | 0.00 | 55 | 1018.9 |
| 20260503174634 | 18 | 197 | 0.0 | 1.6 | 0.00 | 0.00 | 0.00 | 59 | 1018.8 |
| 20260503174132 | 18 | 203 | 4.8 | 4.8 | 0.00 | 0.00 | 0.00 | 61 | 1018.8 |
| 20260503173626 | 18 | 204 | 3.2 | 3.2 | 0.00 | 0.00 | 0.00 | 58 | 1018.9 |
| 20260503173123 | 18 | 200 | 0.0 | 0.0 | 0.00 | 0.00 | 0.00 | 59 | 1018.9 |
| 20260503172620 | 18 | 202 | 1.6 | 1.6 | 0.00 | 0.00 | 0.00 | 62 | 1018.9 |
| 20260503172118 | 18 | 201 | 3.2 | 3.2 | 0.00 | 0.00 | 0.00 | 62 | 1019.1 |
| 20260503171614 | 19 | 200 | 0.0 | 1.6 | 0.00 | 0.00 | 0.00 | 62 | 1019.2 |
| 20260503171111 | 20 | 203 | 1.6 | 3.2 | 0.00 | 0.00 | 0.00 | 59 | 1019.0 |
| 20260503170608 | 20 | 202 | 0.0 | 0.0 | 0.00 | 0.00 | 0.00 | 60 | 1019.1 |
| 20260503170105 | 20 | 198 | 1.6 | 1.6 | 0.00 | 0.00 | 0.00 | 60 | 1019.0 |
| 20260503151000 | 17 | 178 | 3.2 | 3.2 | 0.00 | 0.00 | 0.00 | 60 | 1019.7 |
| 20260503150456 | 17 | 112 | 1.6 | 3.2 | 0.00 | 0.00 | 0.00 | 64 | 1019.4 |
| 20260503131350 | 13 | 126 | 0.0 | 0.0 | 0.00 | 0.00 | 0.00 | 95 | 1018.8 |
| 20260503130847 | 13 | 220 | 1.6 | 1.6 | 0.00 | 0.00 | 0.00 | 98 | 1018.9 |
| 20260503130344 | 13 | 172 | 0.0 | 0.0 | 0.00 | 0.00 | 0.00 | 99 | 1019.0 |
| 20260503110738 | 9 | 163 | 0.0 | 0.0 | 0.00 | 0.00 | 0.00 | 99 | 1017.7 |
| 20260503110235 | 9 | 163 | 0.0 | 0.0 | 0.00 | 0.00 | 0.00 | 99 | 1017.9 |
| 20260503100201 | 9 | 163 | 0.0 | 0.0 | 0.00 | 0.00 | 0.00 | 99 | 1017.0 |
| 20260503090121 | 9 | 167 | 0.0 | 0.0 | 0.00 | 0.00 | 0.00 | 99 | 1016.2 |
| 20260503081556 | 9 | 172 | 0.0 | 0.0 | 0.00 | 0.00 | 0.00 | 99 | 1016.1 |
| 20260503081054 | 9 | 172 | 0.0 | 0.0 | 0.00 | 0.00 | 0.00 | 99 | 1016.0 |
| 20260503080549 | 9 | 172 | 0.0 | 0.0 | 0.00 | 0.00 | 0.00 | 99 | 1016.1 |
| 20260503072523 | 10 | 172 | 0.0 | 0.0 | 0.00 | 0.00 | 0.00 | 99 | 1015.4 |
| 20260503072020 | 10 | 172 | 0.0 | 0.0 | 0.00 | 0.00 | 0.00 | 99 | 1015.4 |
| 20260503071517 | 10 | 172 | 0.0 | 0.0 | 0.00 | 0.00 | 0.00 | 99 | 1015.5 |
| 20260503071014 | 10 | 172 | 0.0 | 0.0 | 0.00 | 0.00 | 0.00 | 99 | 1015.7 |
| 20260503070511 | 10 | 172 | 0.0 | 0.0 | 0.00 | 0.00 | 0.00 | 99 | 1015.6 |
| 20260503054929 | 11 | 159 | 0.0 | 0.0 | 0.00 | 0.00 | 0.00 | 99 | 1014.9 |
| 20260503054425 | 11 | 158 | 0.0 | 0.0 | 0.00 | 0.00 | 0.00 | 99 | 1015.1 |
| 20260503053923 | 11 | 170 | 0.0 | 0.0 | 0.00 | 0.00 | 0.00 | 99 | 1015.1 |
| 20260503053420 | 11 | 167 | 1.6 | 1.6 | 0.00 | 0.00 | 0.00 | 99 | 1015.3 |
| 20260503052916 | 11 | 93 | 1.6 | 1.6 | 0.00 | 0.00 | 0.00 | 99 | 1015.2 |
| 20260503052414 | 11 | 153 | 0.0 | 1.6 | 0.00 | 0.00 | 0.00 | 99 | 1015.0 |
| 20260503051910 | 11 | 139 | 1.6 | 1.6 | 0.00 | 0.00 | 0.00 | 99 | 1015.4 |
| 20260503051406 | 11 | 66 | 3.2 | 3.2 | 0.00 | 0.00 | 0.00 | 99 | 1015.0 |
| 20260503050904 | 11 | 169 | 1.6 | 1.6 | 0.00 | 0.00 | 0.00 | 99 | 1015.2 |
| 20260503050359 | 11 | 117 | 0.0 | 1.6 | 0.00 | 0.00 | 0.00 | 99 | 1015.0 |
| 20260503045857 | 11 | 161 | 0.0 | 0.0 | 0.00 | 0.00 | 0.00 | 99 | 1015.1 |
| 20260503045354 | 11 | 160 | 0.0 | 0.0 | 0.00 | 0.00 | 0.00 | 99 | 1015.0 |
| 20260503044851 | 11 | 124 | 1.6 | 1.6 | 0.00 | 0.00 | 0.00 | 99 | 1014.9 |
| 20260503044348 | 11 | 93 | 1.6 | 1.6 | 0.00 | 0.00 | 0.00 | 99 | 1014.6 |
| 20260503043845 | 11 | 155 | 0.0 | 1.6 | 0.00 | 0.00 | 0.00 | 99 | 1014.6 |
| 20260503043342 | 12 | 158 | 0.0 | 0.0 | 0.00 | 0.00 | 0.00 | 99 | 1014.8 |
| 20260503042838 | 12 | 326 | 1.6 | 3.2 | 0.00 | 0.00 | 0.00 | 99 | 1014.4 |
| 20260503042335 | 12 | 160 | 0.0 | 0.0 | 0.00 | 0.00 | 0.00 | 99 | 1014.8 |
| 20260503041831 | 12 | 159 | 0.0 | 0.0 | 0.00 | 0.00 | 0.00 | 99 | 1014.8 |
| 20260503041328 | 12 | 137 | 1.6 | 1.6 | 0.00 | 0.00 | 0.00 | 99 | 1014.7 |
| 20260503040826 | 12 | 175 | 0.0 | 0.0 | 0.00 | 0.00 | 0.00 | 99 | 1014.4 |
| 20260503040324 | 12 | 175 | 0.0 | 0.0 | 0.00 | 0.00 | 0.00 | 99 | 1014.5 |
| 20260503035820 | 12 | 160 | 0.0 | 0.0 | 0.00 | 3.91 | 3.91 | 99 | 1014.2 |
| 20260503035317 | 12 | 160 | 0.0 | 0.0 | 0.00 | 3.91 | 3.91 | 99 | 1014.5 |
| 20260503034814 | 12 | 171 | 0.0 | 0.0 | 0.00 | 3.91 | 3.91 | 99 | 1014.4 |
| 20260503034312 | 12 | 161 | 0.0 | 0.0 | 0.00 | 3.91 | 3.91 | 99 | 1014.2 |
| 20260503033809 | 12 | 148 | 1.6 | 3.2 | 0.00 | 3.91 | 3.91 | 99 | 1014.1 |
| 20260503033306 | 12 | 160 | 0.0 | 0.0 | 0.00 | 3.91 | 3.91 | 99 | 1014.1 |
| 20260503032804 | 12 | 146 | 1.6 | 1.6 | 0.00 | 3.91 | 3.91 | 99 | 1013.8 |
| 20260503032304 | 12 | 147 | 0.0 | 0.0 | 0.00 | 3.91 | 3.91 | 99 | 1013.8 |
| 20260503031759 | 12 | 176 | 1.6 | 1.6 | 0.00 | 3.91 | 3.91 | 99 | 1014.0 |
| 20260503031258 | 12 | 155 | 0.0 | 0.0 | 0.00 | 3.91 | 3.91 | 99 | 1013.7 |
| 20260503030754 | 12 | 168 | 0.0 | 0.0 | 0.00 | 3.91 | 3.91 | 99 | 1013.9 |
| 20260503030250 | 12 | 157 | 0.0 | 0.0 | 0.00 | 3.91 | 3.91 | 99 | 1013.8 |
| 20260503025747 | 12 | 169 | 0.0 | 0.0 | 0.00 | 3.91 | 3.91 | 99 | 1013.7 |
| 20260503025244 | 12 | 167 | 0.0 | 0.0 | 0.00 | 3.91 | 3.91 | 99 | 1013.5 |
| 20260503024741 | 12 | 151 | 0.0 | 1.6 | 0.00 | 3.91 | 3.91 | 99 | 1013.5 |
| 20260503024238 | 12 | 172 | 1.6 | 3.2 | 0.00 | 3.91 | 3.91 | 99 | 1013.6 |
| 20260503023735 | 12 | 164 | 0.0 | 0.0 | 0.00 | 3.91 | 3.91 | 99 | 1013.6 |
| 20260503023232 | 12 | 125 | 0.0 | 0.0 | 0.00 | 3.91 | 3.91 | 99 | 1013.5 |
| 20260503022728 | 12 | 171 | 0.0 | 0.0 | 0.00 | 3.91 | 3.91 | 99 | 1013.2 |
| 20260503022228 | 12 | 172 | 0.0 | 1.6 | 0.00 | 3.91 | 3.91 | 99 | 1013.1 |
| 20260503021725 | 12 | 157 | 0.0 | 0.0 | 0.00 | 3.91 | 3.91 | 99 | 1013.1 |
| 20260503021221 | 12 | 166 | 1.6 | 1.6 | 0.00 | 3.91 | 3.91 | 99 | 1013.0 |
| 20260503020719 | 12 | 123 | 1.6 | 1.6 | 0.00 | 3.91 | 3.91 | 99 | 1013.0 |
| 20260503020216 | 12 | 163 | 0.0 | 0.0 | 0.00 | 3.91 | 3.91 | 99 | 1012.7 |
| 20260503015713 | 12 | 169 | 0.0 | 0.0 | 0.00 | 3.91 | 3.91 | 99 | 1012.9 |
| 20260503015210 | 12 | 201 | 0.0 | 0.0 | 0.00 | 3.91 | 3.91 | 99 | 1012.9 |
| 20260503014705 | 12 | 127 | 1.6 | 1.6 | 0.00 | 3.91 | 3.91 | 99 | 1012.5 |
| 20260503014204 | 12 | 140 | 0.0 | 0.0 | 0.00 | 3.91 | 3.91 | 99 | 1012.4 |
| 20260503013701 | 12 | 151 | 0.0 | 1.6 | 0.00 | 3.91 | 3.91 | 99 | 1012.3 |
| 20260503013158 | 12 | 107 | 1.6 | 3.2 | 0.00 | 3.91 | 3.91 | 99 | 1012.4 |
| 20260503012655 | 12 | 136 | 1.6 | 1.6 | 0.00 | 3.91 | 3.91 | 99 | 1012.4 |
| 20260503012152 | 12 | 161 | 0.0 | 0.0 | 0.00 | 3.91 | 3.91 | 99 | 1012.5 |
| 20260503011648 | 12 | 161 | 0.0 | 0.0 | 0.00 | 3.91 | 3.91 | 99 | 1012.5 |
| 20260503011146 | 12 | 167 | 0.0 | 1.6 | 0.00 | 3.91 | 3.91 | 99 | 1012.7 |
| 20260503010642 | 12 | 156 | 0.0 | 0.0 | 0.00 | 3.91 | 3.91 | 99 | 1012.5 |
| 20260503010139 | 12 | 164 | 0.0 | 0.0 | 0.00 | 3.91 | 3.91 | 99 | 1012.5 |
| 20260503005636 | 12 | 125 | 0.0 | 0.0 | 0.00 | 3.91 | 3.91 | 99 | 1012.3 |
| 20260503005134 | 12 | 165 | 0.0 | 0.0 | 0.00 | 3.91 | 3.91 | 99 | 1012.3 |
| 20260503004630 | 12 | 148 | 0.0 | 1.6 | 0.00 | 3.91 | 3.91 | 99 | 1012.3 |
| 20260503004128 | 12 | 148 | 0.0 | 1.6 | 0.00 | 3.91 | 3.91 | 99 | 1012.3 |
| 20260503003625 | 12 | 193 | 1.6 | 3.2 | 0.00 | 3.91 | 3.91 | 99 | 1012.2 |
| 20260503003122 | 12 | 166 | 0.0 | 1.6 | 0.00 | 3.91 | 3.91 | 99 | 1011.6 |
| 20260503002619 | 12 | 177 | 0.0 | 1.6 | 0.00 | 3.91 | 3.91 | 99 | 1012.0 |
| 20260503002115 | 12 | 158 | 1.6 | 1.6 | 0.00 | 2.34 | 2.34 | 99 | 1011.7 |
| 20260503001611 | 12 | 151 | 3.2 | 3.2 | 0.00 | 2.34 | 2.34 | 99 | 1011.4 |
| 20260503001109 | 13 | 83 | 4.8 | 8.0 | 0.00 | 2.34 | 2.34 | 99 | 1011.7 |
| 20260503000606 | 13 | 163 | 0.0 | 0.0 | 0.00 | 2.34 | 2.34 | 99 | 1011.6 |
| 20260503000103 | 13 | 172 | 0.0 | 0.0 | 0.00 | 2.34 | 2.34 | 99 | 1011.7 |
| 20260502235600 | 13 | 118 | 0.0 | 0.0 | 0.00 | 2.34 | 2.34 | 99 | 1011.6 |
| 20260502235058 | 13 | 165 | 0.0 | 1.6 | 0.00 | 2.34 | 2.34 | 99 | 1011.5 |
| 20260502234553 | 13 | 43 | 3.2 | 4.8 | 0.00 | 2.34 | 2.34 | 99 | 1011.4 |
| 20260502234052 | 13 | 44 | 0.0 | 3.2 | 0.00 | 2.34 | 2.34 | 99 | 1011.3 |
| 20260502233551 | 13 | 174 | 0.0 | 0.0 | 0.00 | 2.34 | 2.34 | 99 | 1011.3 |
| 20260502233049 | 13 | 127 | 1.6 | 1.6 | 0.00 | 2.34 | 2.34 | 99 | 1011.2 |
| 20260502232545 | 13 | 173 | 0.0 | 1.6 | 0.00 | 2.34 | 2.34 | 99 | 1010.9 |
| 20260502232042 | 13 | 175 | 0.0 | 0.0 | 0.00 | 2.34 | 2.34 | 99 | 1010.8 |
| 20260502231539 | 13 | 158 | 3.2 | 3.2 | 0.00 | 2.34 | 2.34 | 99 | 1010.7 |
| 20260502231037 | 13 | 96 | 1.6 | 3.2 | 0.00 | 2.34 | 2.34 | 99 | 1010.5 |
| 20260502230535 | 13 | 165 | 0.0 | 0.0 | 0.00 | 2.34 | 2.34 | 99 | 1010.8 |
| 20260502230033 | 13 | 176 | 0.0 | 1.6 | 0.00 | 2.34 | 2.34 | 99 | 1010.6 |
| 20260502225528 | 13 | 146 | 1.6 | 1.6 | 0.00 | 2.34 | 2.34 | 99 | 1010.6 |
| 20260502225026 | 13 | 81 | 8.0 | 9.7 | 0.00 | 2.34 | 2.34 | 99 | 1010.7 |
| 20260502224522 | 13 | 149 | 3.2 | 4.8 | 0.00 | 2.34 | 2.34 | 99 | 1010.6 |
| 20260502224019 | 13 | 161 | 1.6 | 1.6 | 0.00 | 2.34 | 2.34 | 99 | 1010.7 |
| 20260502223517 | 13 | 181 | 0.0 | 1.6 | 0.00 | 2.34 | 2.34 | 99 | 1010.8 |
| 20260502223015 | 13 | 81 | 1.6 | 3.2 | 0.00 | 2.34 | 2.34 | 99 | 1010.9 |
| 20260502222512 | 13 | 165 | 1.6 | 1.6 | 0.13 | 2.34 | 2.34 | 99 | 1010.8 |
| 20260502222008 | 13 | 108 | 1.6 | 3.2 | 0.13 | 2.34 | 2.34 | 99 | 1010.6 |
| 20260502221504 | 13 | 342 | 4.8 | 8.0 | 0.00 | 2.31 | 2.31 | 99 | 1010.5 |
| 20260502221002 | 13 | 173 | 1.6 | 1.6 | 0.00 | 2.31 | 2.31 | 99 | 1010.6 |
| 20260502220456 | 13 | 117 | 3.2 | 4.8 | 0.00 | 2.31 | 2.31 | 99 | 1010.5 |
| 20260502215954 | 13 | 171 | 0.0 | 1.6 | 0.00 | 2.31 | 2.31 | 99 | 1010.5 |
| 20260502215451 | 13 | 161 | 0.0 | 0.0 | 0.00 | 2.31 | 2.31 | 99 | 1010.2 |
| 20260502214948 | 13 | 97 | 0.0 | 1.6 | 0.00 | 2.31 | 2.31 | 99 | 1010.2 |
| 20260502214445 | 13 | 22 | 4.8 | 8.0 | 0.00 | 2.31 | 2.31 | 99 | 1010.1 |
| 20260502213942 | 13 | 88 | 1.6 | 3.2 | 0.00 | 2.31 | 2.31 | 99 | 1010.3 |
| 20260502213438 | 13 | 168 | 0.0 | 0.0 | 0.00 | 2.31 | 2.31 | 99 | 1010.0 |
| 20260502212937 | 13 | 103 | 6.4 | 8.0 | 0.00 | 2.31 | 2.31 | 99 | 1010.2 |
| 20260502212436 | 13 | 153 | 1.6 | 1.6 | 0.00 | 2.31 | 2.31 | 99 | 1009.7 |
| 20260502211932 | 13 | 128 | 1.6 | 1.6 | 0.00 | 2.31 | 2.31 | 99 | 1009.5 |
| 20260502211428 | 13 | 158 | 4.8 | 8.0 | 0.00 | 2.31 | 2.31 | 99 | 1009.6 |
| 20260502210926 | 13 | 123 | 1.6 | 1.6 | 0.00 | 2.31 | 2.31 | 99 | 1009.5 |
| 20260502210422 | 13 | 357 | 3.2 | 4.8 | 0.00 | 2.31 | 2.31 | 99 | 1009.4 |
| 20260502205920 | 13 | 183 | 0.0 | 0.0 | 0.00 | 2.31 | 2.31 | 99 | 1009.5 |
| 20260502205416 | 13 | 5 | 4.8 | 8.0 | 0.00 | 2.31 | 2.31 | 99 | 1009.3 |
| 20260502204913 | 14 | 161 | 0.0 | 0.0 | 0.00 | 2.31 | 2.31 | 99 | 1009.3 |
| 20260502204410 | 14 | 230 | 1.6 | 1.6 | 0.00 | 2.31 | 2.31 | 99 | 1009.4 |